Vertical_Velocity
-1 -3 -5 -2 -3 -4 -8 -1 -2 -3 -1 6 -4 12 -6 14 9 1 1 9 5 -0 -1 -0 0 -1 1 1 1 1 2 -2 2 -1 -3 -0 1 -1
-0 -2 -2 -3 -3 -5 -4 -4 1 -1 -6 11 -4 22 8 3 3 5 14 25 7 0 0 -1 1 -1 2 2 0 0 3 -2 0 -0 -1 -0 -0 -0
-2 -2 -2 -3 -2 -4 -4 -4 -1 -2 -1 -6 0 10 6 -1 11 4 9 10 8 -1 -1 1 -0 1 -0 2 -1 1 3 -2 -1 0 -1 0 0 -2
-0 -2 -1 -4 -2 -4 -3 -2 -4 -1 2 7 -5 5 12 6 2 13 15 13 15 13 -1 2 2 -1 0 0 -1 3 1 0 -1 0 1 -0 2 -0
-3 -2 0 -4 -2 -4 -1 -3 -2 -2 1 6 7 13 11 4 0 13 8 23 10 2 7 5 1 1 1 -0 -2 3 -1 0 1 0 -1 1 1 -1
-0 -4 2 -3 -3 -3 -3 0 -2 -2 0 5 -1 5 4 7 -1 14 16 -2 -8 -0 12 8 -1 5 -0 0 -1 4 2 -1 -1 1 -1 1 1 -1
1 -6 1 -4 -2 -5 -3 1 -2 -2 -1 5 -6 2 13 8 7 2 17 17 7 18 7 1 -8 0 -4 -4 -1 1 1 -0 -2 -0 -1 0 1 -1
2 -3 -1 -4 -3 -5 -3 -0 -0 -0 -1 -1 -4 3 22 10 14 16 20 12 17 15 10 5 -2 -0 -0 -5 7 2 -2 -1 -1 -1 -1 0 1 -0
2 2 5 2 -1 -3 -3 -1 0 -1 -1 4 2 -7 6 11 7 18 27 13 3 11 9 -0 -1 2 1 5 -0 3 2 -0 -1 1 0 1 1 1
0 -1 -0 2 1 1 -2 -3 1 -2 -1 3 2 -8 12 7 14 11 21 21 4 -19 12 -7 2 -1 11 4 2 2 1 4 -0 1 2 3 -1 -3
1 1 -1 -0 1 -3 -2 -2 1 2 -0 0 2 -7 -2 11 15 9 14 20 3 -0 0 7 -3 1 4 5 2 -1 -0 2 1 -2 1 2 -1 -1
1 3 0 0 -0 -2 -3 -1 2 3 1 -4 5 3 -2 -6 14 6 14 25 20 12 14 7 11 -4 -4 0 -1 -1 -2 -3 0 -1 -1 2 -1 2
1 2 3 -0 1 -1 -4 -1 6 -1 2 6 -0 1 -5 -2 8 15 4 17 16 20 -17 -3 3 1 -4 28 4 -3 -1 -4 3 -2 -5 3 -0 1
3 1 2 1 -0 -1 -4 3 2 1 -1 1 -3 -2 13 4 9 7 18 6 22 13 11 3 -5 2 -1 9 -9 -3 -5 -3 -1 2 -1 1 0 -0
2 1 -1 0 -1 -1 3 -0 -3 -2 -3 5 -0 -4 8 -1 2 3 9 12 18 23 14 2 2 3 -1 13 6 1 -7 -2 9 -0 -2 5 1 2
2 -1 -2 -1 -1 -0 -2 1 2 -1 2 -1 6 1 -1 2 -4 11 7 7 7 -1 12 0 7 2 7 6 15 6 1 -7 8 4 10 -10 -4 6
-2 -2 -1 -1 -2 -1 -2 1 -1 -1 -3 5 -0 3 6 -20 3 12 4 6 8 -2 5 1 3 6 8 5 4 5 -1 5 6 0 -7 6 0 -0
-2 -0 1 1 -1 -4 -1 1 -1 2 3 -4 -7 2 0 -5 15 3 -0 6 7 3 6 11 4 1 5 9 10 8 -3 7 1 -0 -6 -0 -2 1
1 2 2 -0 -2 -0 1 0 2 8 4 4 -3 -5 0 4 -3 -0 3 3 10 6 5 6 6 -1 1 3 7 -0 3 4 2 -4 1 1 4 8
1 1 3 1 -1 0 -0 1 -1 0 1 -1 -2 1 -3 -3 -6 2 12 7 4 13 9 5 -1 3 3 6 9 5 13 3 4 7 -1 2 2 -11
2 3 1 -1 -0 -1 -1 0 -1 4 2 0 0 0 -1 -6 2 3 4 8 -0 4 6 -1 4 2 10 -1 6 5 -2 9 4 7 6 4 -3 -6
2 1 -0 0 2 -1 -1 -1 -2 2 -1 -1 -1 -5 -5 2 -5 -4 -1 2 5 6 9 -0 -0 4 1 8 7 6 2 2 10 5 7 3 0 -1
3 2 2 1 0 -1 1 -2 -1 5 1 0 -3 -1 11 5 -3 -2 -10 3 -6 8 6 3 6 1 -5 2 7 5 4 11 8 1 5 3 -0 4
Height
5576 5576 5576 5576 5575 5574 5573 5571 5577 5586 5597 5609 5619 5631 5641 5655 5667 5679 5689 5699 5708 5718 5728 5737 5748 5758 5766 5774 5780 5786 5790 5795 5800 5805 5807 5809 5810 5811
5559 5560 5561 5561 5562 5561 5561 5560 5563 5573 5585 5596 5608 5614 5628 5641 5654 5661 5671 5686 5697 5708 5717 5727 5738 5749 5757 5766 5773 5779 5784 5790 5795 5800 5802 5805 5807 5808
5541 5544 5545 5546 5547 5548 5548 5548 5550 5560 5572 5579 5593 5601 5612 5630 5641 5653 5664 5674 5685 5696 5706 5718 5727 5738 5748 5757 5764 5771 5777 5783 5789 5794 5797 5801 5803 5805
5523 5526 5528 5530 5532 5534 5534 5536 5538 5544 5558 5567 5574 5586 5600 5613 5627 5640 5650 5662 5674 5685 5696 5707 5717 5728 5739 5749 5755 5763 5770 5776 5782 5788 5792 5796 5799 5801
5504 5507 5510 5513 5516 5518 5519 5521 5524 5529 5540 5551 5561 5572 5582 5598 5613 5627 5639 5650 5662 5672 5685 5696 5707 5717 5730 5739 5746 5755 5762 5769 5775 5782 5786 5791 5794 5797
5482 5486 5489 5493 5497 5501 5503 5505 5509 5514 5525 5536 5546 5559 5569 5584 5599 5614 5629 5639 5648 5659 5672 5684 5695 5705 5719 5729 5736 5746 5754 5760 5768 5775 5780 5784 5789 5792
5458 5463 5467 5472 5477 5482 5486 5489 5493 5498 5508 5519 5531 5541 5554 5567 5585 5601 5617 5628 5639 5651 5659 5669 5680 5692 5706 5717 5724 5735 5744 5753 5760 5768 5773 5778 5783 5787
5427 5433 5440 5448 5455 5461 5467 5472 5477 5483 5492 5501 5514 5524 5537 5551 5569 5586 5602 5613 5626 5636 5649 5659 5671 5681 5694 5707 5717 5727 5737 5746 5752 5760 5766 5771 5778 5781
5393 5400 5408 5418 5428 5438 5446 5453 5459 5467 5477 5485 5499 5508 5519 5535 5554 5572 5584 5598 5608 5625 5637 5646 5659 5673 5685 5698 5708 5719 5727 5737 5744 5752 5759 5764 5771 5775
5365 5370 5379 5390 5401 5412 5422 5433 5441 5449 5461 5470 5482 5492 5505 5522 5541 5557 5570 5584 5594 5605 5623 5637 5648 5661 5674 5686 5697 5707 5717 5725 5736 5743 5751 5756 5762 5768
5340 5345 5353 5364 5375 5386 5398 5411 5423 5432 5442 5454 5467 5477 5488 5508 5529 5542 5557 5570 5583 5598 5612 5626 5637 5650 5662 5674 5684 5695 5704 5715 5726 5734 5741 5748 5753 5760
5318 5323 5330 5340 5350 5362 5374 5389 5405 5415 5424 5437 5453 5463 5476 5495 5517 5532 5548 5561 5571 5588 5605 5616 5625 5636 5646 5661 5671 5682 5691 5702 5714 5723 5731 5739 5744 5753
5298 5303 5310 5318 5329 5341 5353 5369 5386 5397 5408 5420 5437 5451 5468 5486 5503 5521 5535 5545 5555 5567 5576 5591 5609 5624 5638 5654 5660 5670 5680 5691 5703 5712 5720 5729 5738 5745
5281 5286 5292 5299 5309 5322 5335 5352 5367 5381 5393 5407 5424 5442 5455 5473 5489 5505 5522 5533 5542 5554 5568 5581 5597 5613 5626 5640 5649 5661 5671 5681 5693 5706 5712 5721 5730 5737
5266 5271 5276 5283 5292 5306 5321 5336 5352 5367 5381 5396 5411 5430 5442 5459 5475 5490 5508 5518 5530 5544 5555 5571 5586 5600 5615 5632 5643 5651 5661 5671 5683 5696 5703 5712 5722 5729
5253 5257 5262 5269 5279 5293 5308 5324 5339 5354 5370 5385 5400 5412 5427 5444 5462 5479 5494 5507 5517 5531 5545 5558 5573 5589 5603 5616 5630 5641 5652 5661 5672 5684 5696 5701 5708 5719
5240 5245 5251 5258 5269 5283 5298 5314 5328 5342 5358 5374 5388 5402 5415 5433 5449 5467 5479 5493 5508 5522 5534 5547 5560 5574 5588 5604 5616 5627 5639 5651 5661 5670 5678 5688 5698 5707
5230 5236 5242 5250 5262 5275 5290 5305 5319 5333 5348 5363 5378 5392 5406 5422 5438 5454 5468 5482 5497 5512 5525 5536 5548 5560 5574 5590 5603 5615 5627 5637 5648 5657 5667 5674 5683 5696
5223 5229 5236 5245 5257 5270 5284 5298 5312 5325 5340 5355 5369 5383 5397 5410 5426 5444 5460 5472 5486 5500 5512 5525 5537 5548 5562 5575 5589 5602 5615 5624 5634 5644 5652 5664 5675 5685
5220 5225 5231 5242 5253 5266 5278 5291 5304 5317 5333 5348 5362 5375 5388 5401 5416 5432 5447 5460 5473 5487 5499 5511 5525 5539 5552 5564 5577 5590 5600 5611 5622 5633 5643 5651 5661 5668
5219 5225 5232 5242 5253 5264 5275 5288 5299 5311 5326 5341 5355 5369 5380 5394 5405 5418 5432 5445 5458 5474 5488 5499 5513 5526 5538 5549 5561 5573 5585 5598 5611 5620 5629 5639 5648 5658
5220 5227 5235 5243 5253 5263 5274 5285 5296 5308 5321 5335 5348 5362 5371 5381 5395 5409 5420 5432 5447 5461 5473 5484 5498 5510 5523 5536 5548 5559 5571 5583 5594 5603 5614 5624 5636 5646
5223 5229 5236 5244 5253 5263 5273 5284 5294 5304 5316 5329 5341 5353 5361 5370 5385 5398 5409 5419 5431 5445 5459 5471 5483 5495 5508 5521 5534 5545 5557 5568 5578 5589 5598 5608 5619 5630